Theta_e
345 344 343 343 345 349 352 359 357 368 361 356 356 354 350 350 351 352 358 361 361 360 363 358 358 361 360 365 366 360 362 355 359 357 354 352 355 357 359 360 358 362 363
345 346 345 345 345 347 353 360 362 367 364 360 359 357 355 354 354 354 358 360 360 361 361 365 361 360 355 369 367 365 357 353 360 351 352 346 343 354 352 357 357 359 359
345 347 347 347 347 348 352 359 365 368 368 369 361 360 360 357 354 355 355 358 361 362 365 370 366 369 364 353 368 364 363 350 354 362 350 341 343 350 347 356 355 358 356
345 348 349 349 348 349 352 359 365 367 370 374 364 368 356 352 353 356 357 359 367 366 365 368 371 370 360 363 365 366 365 363 353 353 355 356 356 341 338 349 356 358 357
338 343 348 351 352 352 351 354 364 368 371 372 370 362 362 356 356 355 365 370 370 369 364 368 372 370 364 366 369 372 372 362 362 354 351 359 353 360 349 339 348 358 355
342 340 344 352 353 354 353 354 363 370 373 374 372 371 366 365 356 358 355 355 357 359 369 366 371 371 368 367 365 375 371 368 364 359 358 352 352 347 356 346 348 345 350
341 340 339 344 351 352 353 354 359 367 365 365 369 371 371 374 370 368 357 360 355 354 361 373 370 364 369 368 371 375 372 369 361 369 357 356 354 354 348 348 344 343 346
342 342 342 343 347 352 353 353 354 362 364 363 369 372 372 363 361 364 361 358 356 357 367 370 366 369 370 370 372 366 363 369 373 367 364 361 356 355 354 352 349 343 344
343 343 344 346 347 350 352 353 354 356 360 362 365 367 367 364 362 369 367 362 366 360 371 372 369 369 370 371 375 364 365 367 367 367 366 361 357 356 355 354 350 353 344
341 342 344 347 348 349 351 352 354 354 359 359 361 361 362 363 363 367 367 368 366 375 371 375 371 369 369 372 375 368 368 367 360 358 366 366 360 359 357 354 356 354 352
339 341 342 345 346 347 348 349 351 352 355 352 359 360 361 363 366 365 367 368 368 373 376 375 373 371 370 372 368 368 364 360 359 360 361 363 367 358 358 359 359 354 355
343 345 346 345 346 347 350 351 352 354 355 359 360 361 362 363 364 369 367 366 370 373 373 376 374 372 371 370 365 362 358 355 354 356 357 355 354 360 361 358 358 355 356
343 344 345 347 348 349 350 351 350 351 354 359 359 361 364 367 370 370 373 372 370 369 367 372 372 371 365 364 360 357 354 355 356 354 351 350 349 351 358 356 357 351 348
344 344 343 345 347 349 350 351 350 351 353 357 357 359 361 366 366 370 370 369 372 369 370 370 368 365 363 359 357 353 353 354 351 351 350 348 345 346 352 348 350 344 344
340 339 338 338 339 340 342 343 344 346 348 351 352 356 359 362 364 367 369 367 368 368 367 369 363 360 359 354 352 353 354 353 348 348 348 346 343 340 342 343 339 340 342
335 335 334 335 336 337 338 338 339 340 344 346 348 352 355 358 360 361 363 363 362 363 365 363 357 354 355 340 340 348 349 351 348 346 344 346 342 339 335 335 335 340 338
333 332 332 333 335 335 337 336 338 340 341 343 344 351 356 354 357 357 356 356 355 357 360 358 354 354 354 334 335 339 352 349 349 347 346 342 340 342 342 331 332 331 333
330 331 332 332 333 335 336 337 337 338 338 338 339 342 345 349 354 354 354 355 356 355 355 352 350 352 346 330 330 334 348 349 346 346 345 343 342 335 339 341 339 338 337
331 332 331 331 332 333 335 335 335 335 335 334 337 340 342 343 348 349 347 351 356 352 349 349 350 349 341 325 325 333 347 342 342 343 342 343 339 320 321 339 337 334 326
331 330 330 331 332 334 334 332 331 332 333 334 336 339 342 342 341 346 348 348 351 345 345 345 346 342 341 323 321 331 342 339 335 337 329 321 323 316 317 335 333 331 329
330 331 331 330 332 333 333 332 332 332 333 333 334 335 337 339 340 342 347 346 343 340 342 342 347 347 341 335 319 322 338 336 332 327 324 317 314 313 316 319 331 329 329
330 330 330 331 332 334 332 330 328 331 329 330 331 334 330 330 332 339 345 345 340 337 337 338 336 336 335 325 317 317 320 331 333 330 323 316 312 312 317 321 315 319 320
331 331 329 329 331 332 331 328 328 326 331 332 329 328 328 326 328 332 337 337 335 333 331 329 329 327 329 320 315 314 318 321 330 328 317 313 310 310 314 314 316 314 324
330 331 328 329 329 330 330 328 326 326 325 322 322 324 322 320 321 324 325 334 330 326 324 322 321 319 315 318 321 321 322 318 320 318 320 319 317 316 317 317 319 321 319
328 329 328 328 327 329 329 328 327 327 320 319 319 322 323 321 316 311 318 319 315 320 322 320 319 316 315 310 308 313 322 320 319 322 321 320 320 321 322 321 320 320 320
332 331 329 328 327 327 327 328 329 327 325 322 320 319 322 321 321 316 312 307 306 304 302 304 314 309 303 300 299 301 302 304 307 320 320 320 322 322 321 319 318 318 315
Wind_Speed
18 19 19 20 20 19 19 17 16 13 10 10 10 10 9 9 9 9 11 10 10 10 10 9 9 9 9 4 4 6 5 6 6 2 8 9 5 12 9 6 8 6 6
18 19 20 20 20 21 19 17 17 15 13 10 9 9 9 9 9 9 10 12 12 12 11 10 9 9 8 5 5 6 6 8 1 5 5 8 6 4 11 4 4 5 6
19 20 21 21 20 21 21 19 17 16 15 14 11 9 8 8 8 9 9 11 13 13 12 10 9 8 6 9 5 6 6 7 6 2 4 6 6 2 4 14 6 6 6
17 19 21 21 21 21 20 19 19 19 17 15 13 13 11 11 11 10 10 10 12 13 14 12 10 9 9 9 7 9 7 9 6 5 7 4 10 6 5 3 10 4 6
7 18 23 22 21 20 20 20 19 18 16 17 16 13 14 12 11 11 12 11 9 12 14 13 12 11 10 10 10 8 7 6 6 6 8 8 4 5 6 9 4 4 4
5 9 15 22 21 20 20 19 18 16 16 15 18 17 17 15 12 12 11 11 11 12 14 14 11 11 10 10 10 9 8 8 7 7 7 6 5 7 6 8 9 8 4
6 3 10 14 19 20 19 18 19 17 17 18 17 17 16 14 13 12 11 12 11 11 10 15 11 10 10 11 10 9 7 6 7 8 8 8 8 9 1 9 8 7 8
10 8 6 7 11 16 18 18 18 17 17 16 20 17 15 12 13 12 12 11 12 11 11 12 12 12 11 12 11 9 8 8 5 7 8 8 10 10 10 5 7 9 10
11 11 9 7 5 6 10 15 16 15 15 17 14 12 11 12 12 11 10 11 13 13 10 9 11 11 12 11 9 8 7 8 6 7 7 6 9 10 10 10 1 12 7
14 13 11 9 8 6 7 7 9 10 13 10 13 12 12 14 14 13 13 13 12 11 14 10 11 11 12 11 10 8 9 8 7 7 8 8 9 10 10 11 11 10 7
10 9 10 10 12 10 9 9 7 8 7 7 16 11 11 13 8 11 11 12 13 12 10 11 10 11 11 11 9 10 6 8 7 8 9 10 10 9 8 8 6 9 9
10 10 10 10 11 11 8 8 6 8 8 6 6 8 11 7 11 10 12 12 12 12 12 11 10 11 11 10 11 12 8 5 7 8 8 11 9 11 10 8 10 10 10
10 9 10 9 9 9 8 5 4 6 4 4 4 7 7 8 10 11 11 11 11 12 13 13 12 10 10 10 9 9 7 6 5 4 3 6 10 11 9 9 8 5 3
7 9 8 8 8 7 7 6 6 7 6 6 6 7 8 9 9 9 9 12 11 12 11 11 10 8 9 11 10 8 7 5 4 4 1 4 6 9 7 1 1 2 3
8 8 8 7 7 6 6 6 7 7 8 7 7 6 7 8 10 10 8 8 10 11 11 10 11 11 11 9 11 9 6 6 6 5 3 3 4 4 4 4 4 3 2
8 8 7 6 6 5 6 6 7 8 9 8 9 9 9 10 9 10 8 9 11 10 11 11 11 12 9 11 7 7 8 8 6 6 4 5 7 7 8 11 11 3 5
7 6 6 5 4 5 5 7 9 9 9 10 10 10 10 10 11 11 11 10 11 11 13 8 8 8 7 11 9 5 8 6 7 7 7 8 7 7 7 10 11 10 11
4 4 5 5 5 6 7 9 10 11 11 11 11 11 11 12 11 10 12 11 10 10 8 7 8 9 8 11 10 8 6 8 7 5 5 7 9 7 2 7 8 9 10
4 4 5 6 7 10 10 11 13 13 14 15 14 13 13 14 14 12 9 12 10 6 4 5 8 6 10 10 9 10 8 7 6 5 4 7 9 7 8 5 6 8 9
5 6 7 7 9 9 11 13 14 15 15 16 17 15 14 14 15 16 10 7 8 5 4 5 7 9 9 10 9 11 8 9 7 7 6 12 9 8 7 5 7 6 5
6 7 7 7 7 9 11 13 14 14 16 18 18 18 18 16 15 15 14 7 7 4 5 7 8 9 10 11 10 9 7 9 9 8 7 5 9 7 6 4 4 7 6
5 5 6 7 7 10 11 14 14 16 16 14 14 16 13 12 13 15 11 12 9 9 7 5 5 5 7 9 3 1 4 10 9 8 9 7 7 7 5 7 7 5 3
3 3 5 6 8 10 13 14 15 16 15 14 14 12 9 9 12 15 11 8 6 5 5 4 6 6 5 6 8 11 8 10 4 8 13 12 11 12 10 6 2 5 3
2 2 5 7 10 11 12 13 14 14 13 13 12 11 9 7 6 5 6 3 4 4 5 7 7 7 8 5 6 3 9 12 9 14 11 9 8 9 8 6 4 5 5
3 4 4 6 7 9 10 11 12 11 10 10 11 10 7 7 9 10 6 8 7 5 8 8 9 10 9 5 7 7 7 5 5 8 5 6 6 6 6 5 4 4 5
2 2 3 5 4 6 9 10 11 12 8 9 8 9 7 9 8 9 11 25 21 20 20 17 10 12 13 15 8 6 7 9 6 6 6 6 4 4 5 5 4 5 2
Wind_Direction
183 182 190 187 190 191 193 189 197 186 196 201 197 214 221 217 223 227 228 235 235 239 222 243 250 227 249 248 254 300 219 261 288 349 283 323 257 242 194 201 222 240 189
188 187 188 193 195 192 191 192 197 193 197 202 214 215 216 223 220 225 225 214 232 236 241 239 256 263 283 155 223 242 295 296 25 256 333 294 299 315 349 219 214 265 267
196 190 190 196 195 197 193 192 195 190 198 217 203 215 243 246 239 229 233 220 222 232 235 251 247 260 260 274 168 214 241 272 306 305 285 294 296 37 180 244 201 180 236
200 195 196 196 201 201 194 197 191 202 192 195 223 206 218 222 227 234 236 228 212 218 227 232 229 239 253 255 261 190 225 216 261 266 223 262 315 323 302 125 237 169 230
238 208 195 197 203 202 201 196 194 200 204 192 211 214 216 231 232 240 243 221 235 213 228 222 219 221 231 240 253 276 229 242 244 267 278 209 317 278 289 312 346 233 219
258 242 222 189 195 205 202 197 192 201 197 201 203 222 221 215 234 229 239 242 232 217 209 227 225 224 230 234 240 226 240 257 254 273 306 272 239 253 214 225 251 277 250
13 246 211 199 185 199 206 201 192 191 204 210 220 218 236 241 233 237 247 255 252 240 230 191 210 226 215 240 231 214 221 230 235 238 241 272 263 268 316 300 241 277 279
50 49 111 179 196 192 198 207 197 188 199 214 214 218 218 231 236 240 251 248 248 248 249 183 199 201 232 205 223 225 240 237 233 230 247 237 242 257 278 266 278 278 275
68 68 80 104 128 193 200 210 201 190 199 214 233 227 232 241 265 258 257 231 252 267 236 229 198 203 216 215 219 229 217 239 234 231 238 226 265 260 264 267 13 238 248
95 89 82 83 97 136 153 181 194 189 195 215 228 222 221 226 234 222 231 251 256 231 264 259 197 202 213 210 201 224 202 210 229 240 246 235 229 247 267 259 255 268 229
98 94 94 73 67 93 119 130 161 155 188 207 223 221 217 217 240 250 245 235 243 249 248 246 216 208 213 205 190 236 225 217 249 270 268 259 263 249 245 265 259 256 265
102 96 69 84 83 84 48 70 33 29 358 353 336 323 288 285 271 253 246 248 248 244 240 239 232 210 207 194 197 218 224 211 242 264 280 284 280 264 249 254 248 234 259
118 98 89 70 61 54 55 79 115 68 44 352 278 254 277 278 271 273 274 264 255 250 248 229 225 203 195 205 204 201 207 225 232 243 301 318 306 286 264 250 241 233 319
115 93 89 82 72 62 48 35 26 28 33 353 343 336 321 310 276 258 252 257 251 252 240 235 204 187 208 211 208 215 223 214 130 153 188 301 320 352 280 265 210 164 226
122 106 94 79 65 49 30 19 9 356 348 333 315 305 300 294 288 277 255 256 249 243 238 208 199 206 212 209 220 223 218 180 176 158 256 264 31 37 34 61 78 2 32
127 108 92 77 58 30 6 359 354 345 331 312 301 300 294 297 286 280 276 236 247 240 228 212 208 217 208 188 193 232 189 176 196 167 177 163 168 83 80 90 79 75 118
137 117 87 63 41 1 347 335 331 322 310 304 303 298 290 275 277 276 259 242 243 245 234 209 207 211 211 146 162 184 176 185 177 181 180 174 125 153 124 100 108 81 70
123 88 60 19 3 334 344 324 316 307 307 302 300 299 295 286 271 263 263 257 221 237 230 203 198 202 137 154 174 191 203 157 159 171 196 131 122 76 108 133 118 115 99
99 49 20 351 7 357 340 329 325 324 321 318 310 303 295 293 294 270 263 266 262 214 205 213 194 168 149 160 185 197 171 126 138 155 141 163 116 63 30 142 122 110 114
72 17 2 352 15 351 341 336 330 330 321 318 310 305 297 286 283 289 264 242 241 210 219 187 184 176 149 169 200 224 162 149 149 132 113 67 94 70 43 134 140 141 109
59 353 11 14 6 355 343 338 337 332 329 320 311 304 297 289 278 276 280 217 211 191 219 200 192 184 157 173 200 222 171 167 166 159 152 104 104 95 82 4 99 104 128
34 15 6 11 3 4 351 349 337 334 324 307 289 294 290 282 281 287 281 256 199 199 190 171 152 147 139 153 118 265 241 172 175 152 102 115 122 113 123 106 86 60 275
24 357 24 19 12 9 12 349 348 340 329 349 343 330 314 288 286 282 278 258 180 177 188 187 134 120 126 87 61 41 18 8 106 98 106 130 135 117 98 98 131 232 193
92 26 31 38 16 9 15 10 3 356 1 359 348 352 12 8 17 39 21 244 123 116 119 119 109 96 83 25 93 64 83 69 86 104 130 144 142 87 104 153 200 74 46
96 45 43 52 27 14 16 18 8 23 26 11 3 359 15 15 31 26 21 87 49 95 120 112 106 105 94 39 23 39 118 115 137 117 176 151 161 158 159 121 102 108 154
134 164 108 80 37 39 28 24 19 11 5 45 25 9 32 34 42 60 62 48 67 68 65 59 89 89 100 80 38 71 61 68 32 186 185 151 188 177 134 117 125 128 173